Arletta, WA

10:04 AM PDT on June 03, 2015 (GMT -0700)
Artondale | | Change Station
CLOSE
Current Station
Personal Weather Station
Location: Gig Harbor, WA
Elevation: 292 ft
Nearby Weather Stations

Elev 292 ft 47.29 °N, 122.63 °W | Updated 32 seconds ago

Overcast
Overcast
56.8 °F
Feels Like 56.8 °F
N
1.7
Wind Variable Wind from South

Today
High -- | Low -- °F
--% Chance of Precip.
Yesterday
High -- | Low -- °F
Precip. -- in
5:17 AM 9:00 PM
Full, 99% visible
Pressure 30.08 in
Visibility 10.0 miles
Clouds Overcast 1600 ft
Dew Point 52 °F
Humidity 84%
Rainfall 0.00 in
Snow Depth Not available.
UV 2 out of 12
Pollen 4.00 out of 12
Air Quality Not available.
Flu Activity Sporadic
METAR KTIW 031653Z 20005KT 10SM OVC016 13/09 A3008 RMK AO2 SLP186 T01330094

More Conditions Fewer Conditions

Pressure 30.08 in
Visibility 10.0 miles
Clouds Overcast 1600 ft
Dew Point 52 °F
Humidity 84%
Rainfall 0.00 in
Snow Depth Not available.
UV 2 out of 12
Pollen 4.00 out of 12
Air Quality Not available.
Flu Activity Sporadic
METAR KTIW 031653Z 20005KT 10SM OVC016 13/09 A3008 RMK AO2 SLP186 T01330094

More Conditions Fewer Conditions

10-Day Weather Forecast

×

Almanac

Astronomy

Jun. 03, 2015 Rise Set
Actual Time
Civil Twilight
Nautical Twilight
Astronomical Twilight
Moon
Length of Visible Light
Length of Day
Tomorrow will be .
, % of the Moon is Illuminated

Today's Extremes

State Highs State Lows

Community

WunderPhotos

Upload Photos

1,826,256 photos uploaded!

WunderBlogs® & News

Nearby

Air Quality

  Air Quality AQ Index Pollutant
Not available.

Snow Depth

Station Depth Elevation

Earthquake Activity

City Distance Mag. Time & Date
Minimum magnitude displayed is 2.5.

Coastal Water Temperatures

Place Temperature

Stations

Nearby Weather Stations

Station Location Temp. Windchill Dew Point Humidity Wind Precip. Elev Updated Type